QPF
0.00 0.00 0.00 0.00 0.00 0.00 0.00 0.00 0.00 0.00 0.00 0.00 0.00 0.00 0.00 0.00 0.00 0.00 0.00 0.00 0.00 0.00 0.00 0.01 0.01 0.01 0.01 0.01 0.00 0.00 0.00 0.00 0.00 0.01 0.01 0.01 0.01 0.01 0.01 0.01 0.01 0.01 0.01 0.01 0.01 0.01 0.01 0.00 0.01
0.00 0.00 0.00 0.00 0.00 0.00 0.00 0.00 0.00 0.00 0.00 0.00 0.00 0.00 0.00 0.00 0.00 0.00 0.00 0.00 0.00 0.00 0.00 0.01 0.01 0.01 0.01 0.01 0.01 0.01 0.01 0.01 0.01 0.01 0.01 0.01 0.00 0.00 0.01 0.01 0.01 0.01 0.01 0.01 0.01 0.02 0.01 0.01 0.00
0.00 0.00 0.00 0.00 0.00 0.00 0.00 0.00 0.00 0.00 0.00 0.00 0.00 0.00 0.00 0.00 0.00 0.00 0.00 0.00 0.00 0.00 0.00 0.01 0.01 0.01 0.01 0.01 0.01 0.01 0.01 0.01 0.01 0.01 0.01 0.01 0.01 0.01 0.01 0.02 0.01 0.00 0.00 0.00 0.01 0.01 0.01 0.01 0.01
0.00 0.01 0.01 0.00 0.00 0.00 0.00 0.00 0.00 0.00 0.00 0.00 0.00 0.00 0.00 0.00 0.00 0.00 0.00 0.00 0.00 0.00 0.00 0.01 0.01 0.01 0.01 0.01 0.01 0.01 0.01 0.01 0.01 0.01 0.01 0.01 0.01 0.01 0.01 0.01 0.01 0.01 0.00 0.00 0.00 0.01 0.01 0.01 0.01
0.00 0.00 0.00 0.00 0.00 0.00 0.00 0.00 0.00 0.00 0.00 0.00 0.00 0.00 0.00 0.00 0.00 0.00 0.00 0.00 0.00 0.00 0.00 0.01 0.01 0.01 0.01 0.01 0.01 0.01 0.01 0.01 0.01 0.01 0.01 0.01 0.01 0.02 0.01 0.01 0.01 0.01 0.00 0.00 0.00 0.01 0.01 0.01 0.01
0.01 0.00 0.00 0.00 0.00 0.00 0.00 0.00 0.00 0.00 0.00 0.00 0.00 0.00 0.00 0.00 0.00 0.00 0.00 0.00 0.00 0.00 0.00 0.01 0.01 0.01 0.01 0.01 0.01 0.01 0.00 0.01 0.01 0.01 0.01 0.01 0.01 0.01 0.01 0.01 0.01 0.01 0.01 0.00 0.00 0.01 0.01 0.01 0.01
0.01 0.00 0.00 0.00 0.00 0.00 0.00 0.00 0.00 0.00 0.00 0.00 0.00 0.00 0.00 0.00 0.00 0.00 0.00 0.00 0.00 0.00 0.01 0.01 0.01 0.01 0.02 0.01 0.01 0.01 0.00 0.00 0.01 0.01 0.01 0.01 0.01 0.01 0.01 0.01 0.01 0.01 0.01 0.01 0.01 0.01 0.01 0.01 0.01
0.01 0.00 0.00 0.00 0.00 0.00 0.00 0.00 0.00 0.00 0.00 0.00 0.00 0.00 0.00 0.00 0.00 0.00 0.00 0.00 0.00 0.00 0.01 0.01 0.01 0.01 0.01 0.01 0.01 0.01 0.01 0.00 0.00 0.00 0.00 0.00 0.00 0.00 0.00 0.00 0.01 0.01 0.01 0.01 0.01 0.01 0.01 0.01 0.02
0.01 0.01 0.00 0.00 0.00 0.00 0.00 0.00 0.00 0.00 0.00 0.00 0.00 0.00 0.00 0.00 0.00 0.00 0.00 0.01 0.01 0.00 0.01 0.01 0.01 0.01 0.01 0.01 0.01 0.01 0.01 0.01 0.00 0.00 0.00 0.00 0.00 0.00 0.00 0.00 0.00 0.01 0.01 0.01 0.01 0.01 0.01 0.01 0.02
0.02 0.01 0.00 0.00 0.00 0.00 0.00 0.00 0.00 0.00 0.00 0.00 0.00 0.00 0.00 0.00 0.00 0.00 0.00 0.00 0.00 0.00 0.01 0.01 0.01 0.01 0.01 0.01 0.01 0.01 0.01 0.01 0.00 0.00 0.00 0.00 0.00 0.00 0.00 0.00 0.00 0.01 0.01 0.01 0.01 0.01 0.01 0.01 0.02
0.02 0.02 0.01 0.00 0.00 0.00 0.00 0.00 0.00 0.00 0.00 0.00 0.00 0.00 0.00 0.00 0.00 0.00 0.00 0.00 0.00 0.00 0.00 0.01 0.01 0.01 0.01 0.01 0.01 0.01 0.01 0.01 0.00 0.00 0.00 0.00 0.00 0.00 0.00 0.00 0.00 0.00 0.00 0.00 0.00 0.01 0.00 0.00 0.01
0.01 0.01 0.01 0.00 0.00 0.00 0.00 0.00 0.00 0.00 0.00 0.00 0.00 0.00 0.00 0.00 0.00 0.00 0.01 0.01 0.01 0.01 0.01 0.00 0.00 0.01 0.01 0.01 0.01 0.01 0.01 0.01 0.01 0.00 0.00 0.00 0.00 0.00 0.00 0.00 0.00 0.00 0.00 0.00 0.00 0.00 0.00 0.00 0.01
0.00 0.00 0.00 0.00 0.00 0.00 0.00 0.00 0.00 0.00 0.00 0.00 0.00 0.00 0.01 0.01 0.01 0.01 0.01 0.02 0.02 0.02 0.01 0.01 0.01 0.01 0.01 0.01 0.01 0.01 0.01 0.01 0.01 0.01 0.01 0.00 0.00 0.00 0.00 0.00 0.01 0.01 0.00 0.00 0.00 0.00 0.00 0.00 0.00
0.00 0.00 0.00 0.00 0.00 0.00 0.00 0.00 0.00 0.00 0.00 0.00 0.00 0.00 0.01 0.01 0.01 0.01 0.01 0.01 0.02 0.02 0.03 0.02 0.02 0.01 0.01 0.01 0.00 0.00 0.01 0.02 0.03 0.02 0.02 0.02 0.02 0.01 0.00 0.00 0.01 0.01 0.01 0.00 0.00 0.00 0.01 0.01 0.01
0.00 0.00 0.00 0.00 0.00 0.00 0.00 0.00 0.00 0.00 0.00 0.00 0.00 0.00 0.00 0.00 0.00 0.01 0.01 0.01 0.01 0.02 0.04 0.04 0.04 0.03 0.03 0.02 0.01 0.01 0.01 0.01 0.02 0.02 0.03 0.03 0.04 0.03 0.02 0.02 0.02 0.02 0.02 0.01 0.01 0.01 0.01 0.01 0.01
0.00 0.00 0.00 0.00 0.00 0.00 0.00 0.00 0.00 0.00 0.00 0.00 0.00 0.00 0.00 0.00 0.00 0.00 0.01 0.01 0.02 0.02 0.03 0.05 0.05 0.05 0.04 0.03 0.03 0.02 0.02 0.01 0.01 0.02 0.02 0.02 0.03 0.03 0.03 0.03 0.03 0.04 0.03 0.02 0.02 0.01 0.01 0.01 0.01
0.01 0.00 0.00 0.00 0.00 0.00 0.00 0.00 0.00 0.00 0.00 0.00 0.00 0.00 0.00 0.00 0.00 0.00 0.00 0.00 0.01 0.01 0.02 0.03 0.04 0.05 0.06 0.05 0.04 0.03 0.02 0.02 0.02 0.02 0.02 0.02 0.01 0.01 0.01 0.02 0.02 0.02 0.02 0.02 0.02 0.02 0.02 0.02 0.02
0.01 0.00 0.00 0.00 0.00 0.00 0.00 0.00 0.00 0.00 0.00 0.00 0.00 0.00 0.00 0.00 0.00 0.00 0.00 0.00 0.00 0.01 0.01 0.02 0.03 0.04 0.05 0.06 0.06 0.04 0.03 0.02 0.01 0.01 0.01 0.02 0.01 0.01 0.01 0.02 0.02 0.02 0.02 0.01 0.01 0.01 0.01 0.01 0.02
0.00 0.00 0.00 0.00 0.00 0.00 0.00 0.00 0.00 0.00 0.00 0.00 0.00 0.00 0.00 0.00 0.00 0.00 0.00 0.00 0.00 0.00 0.00 0.01 0.01 0.01 0.02 0.04 0.05 0.04 0.03 0.02 0.01 0.01 0.01 0.02 0.02 0.03 0.03 0.03 0.02 0.02 0.01 0.01 0.01 0.01 0.01 0.01 0.02
0.01 0.01 0.00 0.00 0.00 0.00 0.00 0.00 0.00 0.00 0.00 0.00 0.00 0.00 0.00 0.00 0.00 0.00 0.00 0.00 0.00 0.00 0.00 0.00 0.01 0.01 0.01 0.01 0.02 0.04 0.04 0.03 0.02 0.01 0.01 0.02 0.02 0.03 0.03 0.02 0.02 0.02 0.02 0.01 0.01 0.01 0.01 0.01 0.01
0.01 0.01 0.00 0.00 0.00 0.00 0.00 0.00 0.00 0.00 0.00 0.00 0.00 0.00 0.00 0.00 0.00 0.00 0.00 0.00 0.00 0.00 0.00 0.00 0.01 0.01 0.01 0.02 0.02 0.04 0.04 0.03 0.02 0.01 0.01 0.01 0.02 0.02 0.02 0.02 0.02 0.02 0.01 0.01 0.01 0.01 0.01 0.02 0.02
0.01 0.01 0.01 0.01 0.01 0.00 0.00 0.00 0.00 0.00 0.00 0.00 0.00 0.00 0.00 0.00 0.00 0.00 0.00 0.00 0.00 0.00 0.00 0.00 0.00 0.01 0.01 0.01 0.02 0.02 0.02 0.02 0.01 0.01 0.01 0.01 0.02 0.02 0.02 0.02 0.03 0.03 0.03 0.02 0.02 0.02 0.02 0.02 0.02
0.01 0.00 0.01 0.01 0.01 0.01 0.00 0.00 0.00 0.00 0.00 0.00 0.00 0.00 0.00 0.00 0.00 0.00 0.00 0.00 0.00 0.00 0.00 0.00 0.00 0.01 0.01 0.01 0.01 0.02 0.02 0.02 0.01 0.00 0.00 0.01 0.01 0.01 0.02 0.02 0.02 0.02 0.03 0.04 0.04 0.03 0.03 0.02 0.02
0.02 0.01 0.01 0.02 0.03 0.03 0.00 0.00 0.00 0.00 0.00 0.00 0.00 0.00 0.00 0.00 0.00 0.00 0.00 0.00 0.00 0.00 0.00 0.00 0.00 0.00 0.01 0.01 0.01 0.01 0.01 0.02 0.02 0.01 0.01 0.01 0.01 0.01 0.01 0.02 0.02 0.02 0.02 0.03 0.04 0.05 0.04 0.03 0.03
0.03 0.04 0.06 0.06 0.05 0.02 0.00 0.00 0.00 0.00 0.00 0.00 0.00 0.00 0.00 0.00 0.00 0.00 0.00 0.00 0.00 0.00 0.00 0.00 0.00 0.00 0.00 0.01 0.01 0.01 0.01 0.01 0.02 0.02 0.01 0.01 0.01 0.01 0.02 0.02 0.02 0.03 0.03 0.03 0.04 0.04 0.04 0.04 0.04
0.03 0.03 0.03 0.03 0.01 0.00 0.00 0.00 0.00 0.00 0.00 0.00 0.00 0.00 0.00 0.00 0.00 0.00 0.00 0.00 0.00 0.00 0.00 0.00 0.00 0.00 0.00 0.00 0.00 0.00 0.01 0.01 0.01 0.02 0.02 0.02 0.02 0.02 0.03 0.03 0.03 0.03 0.02 0.04 0.05 0.05 0.04 0.05 0.05
0.03 0.03 0.01 0.02 0.02 0.01 0.01 0.01 0.01 0.00 0.00 0.00 0.00 0.00 0.00 0.00 0.00 0.00 0.00 0.00 0.00 0.00 0.00 0.00 0.00 0.00 0.00 0.00 0.00 0.00 0.00 0.01 0.01 0.01 0.02 0.03 0.03 0.04 0.04 0.04 0.04 0.04 0.04 0.04 0.04 0.04 0.03 0.03 0.02
0.03 0.03 0.03 0.03 0.02 0.01 0.01 0.01 0.01 0.02 0.01 0.00 0.00 0.00 0.00 0.00 0.00 0.00 0.00 0.00 0.00 0.00 0.00 0.00 0.00 0.00 0.00 0.00 0.00 0.00 0.00 0.00 0.01 0.01 0.02 0.02 0.03 0.03 0.04 0.04 0.04 0.04 0.04 0.04 0.03 0.03 0.03 0.03 0.02
0.04 0.05 0.04 0.04 0.03 0.01 0.01 0.01 0.02 0.02 0.02 0.01 0.00 0.00 0.00 0.00 0.00 0.00 0.00 0.00 0.00 0.00 0.00 0.00 0.00 0.00 0.00 0.00 0.00 0.00 0.00 0.00 0.01 0.01 0.02 0.02 0.02 0.02 0.03 0.02 0.02 0.02 0.02 0.02 0.02 0.02 0.02 0.02 0.03
0.03 0.04 0.04 0.04 0.03 0.02 0.01 0.01 0.02 0.02 0.02 0.01 0.01 0.01 0.01 0.00 0.00 0.00 0.00 0.00 0.00 0.00 0.00 0.00 0.00 0.00 0.00 0.00 0.00 0.00 0.00 0.00 0.00 0.01 0.02 0.03 0.03 0.02 0.02 0.02 0.01 0.01 0.01 0.01 0.01 0.01 0.02 0.02 0.02
MSLP
1010.24 1010.90 1011.65 1012.38 1012.99 1013.37 1013.49 1013.33 1012.96 1012.44 1011.90 1011.42 1011.04 1010.77 1010.60 1010.47 1010.32 1010.10 1009.81 1009.47 1009.15 1008.91 1008.81 1008.91 1009.22 1009.68 1010.24 1010.82 1011.35 1011.79 1012.13 1012.37 1012.58 1012.78 1013.03 1013.32 1013.67 1014.04 1014.39 1014.69 1014.93 1015.11 1015.25 1015.39 1015.55 1015.76 1016.01 1016.31 1016.63
1010.61 1011.34 1012.11 1012.80 1013.28 1013.48 1013.38 1012.99 1012.40 1011.71 1011.04 1010.47 1010.07 1009.82 1009.71 1009.65 1009.59 1009.47 1009.27 1009.02 1008.78 1008.61 1008.59 1008.75 1009.11 1009.63 1010.24 1010.88 1011.46 1011.95 1012.34 1012.63 1012.86 1013.08 1013.32 1013.60 1013.92 1014.25 1014.57 1014.85 1015.08 1015.27 1015.43 1015.60 1015.78 1016.01 1016.29 1016.59 1016.90
1011.00 1011.76 1012.50 1013.08 1013.42 1013.43 1013.13 1012.56 1011.81 1011.00 1010.25 1009.65 1009.25 1009.04 1008.97 1008.97 1008.98 1008.93 1008.81 1008.63 1008.47 1008.38 1008.42 1008.65 1009.06 1009.62 1010.28 1010.95 1011.58 1012.11 1012.53 1012.86 1013.11 1013.34 1013.57 1013.82 1014.10 1014.39 1014.67 1014.93 1015.15 1015.36 1015.55 1015.76 1015.99 1016.26 1016.57 1016.89 1017.21
1011.36 1012.11 1012.76 1013.22 1013.39 1013.25 1012.80 1012.10 1011.26 1010.41 1009.65 1009.07 1008.69 1008.52 1008.49 1008.54 1008.59 1008.58 1008.52 1008.41 1008.31 1008.28 1008.39 1008.66 1009.11 1009.70 1010.37 1011.05 1011.69 1012.24 1012.69 1013.03 1013.31 1013.54 1013.76 1013.98 1014.22 1014.47 1014.71 1014.95 1015.17 1015.40 1015.63 1015.89 1016.18 1016.51 1016.85 1017.20 1017.54
1011.66 1012.33 1012.87 1013.19 1013.21 1012.94 1012.39 1011.64 1010.80 1009.97 1009.27 1008.75 1008.44 1008.31 1008.31 1008.38 1008.45 1008.47 1008.44 1008.38 1008.33 1008.36 1008.51 1008.81 1009.27 1009.86 1010.51 1011.17 1011.80 1012.34 1012.79 1013.15 1013.44 1013.68 1013.90 1014.11 1014.32 1014.53 1014.75 1014.96 1015.19 1015.43 1015.70 1016.01 1016.36 1016.74 1017.13 1017.51 1017.86
1011.85 1012.41 1012.82 1012.99 1012.88 1012.52 1011.93 1011.20 1010.42 1009.70 1009.10 1008.69 1008.45 1008.38 1008.40 1008.48 1008.54 1008.57 1008.55 1008.52 1008.51 1008.58 1008.76 1009.08 1009.52 1010.07 1010.68 1011.29 1011.88 1012.39 1012.84 1013.21 1013.52 1013.78 1014.02 1014.23 1014.43 1014.63 1014.82 1015.02 1015.24 1015.49 1015.79 1016.14 1016.53 1016.95 1017.37 1017.78 1018.15
1011.91 1012.35 1012.61 1012.64 1012.43 1012.01 1011.44 1010.78 1010.12 1009.54 1009.09 1008.79 1008.65 1008.62 1008.66 1008.73 1008.78 1008.80 1008.78 1008.77 1008.79 1008.89 1009.08 1009.39 1009.81 1010.30 1010.84 1011.38 1011.91 1012.40 1012.83 1013.22 1013.56 1013.86 1014.14 1014.38 1014.60 1014.80 1014.98 1015.16 1015.36 1015.61 1015.91 1016.27 1016.68 1017.12 1017.56 1017.99 1018.37
1011.87 1012.17 1012.29 1012.19 1011.91 1011.47 1010.94 1010.38 1009.86 1009.44 1009.14 1008.97 1008.91 1008.92 1008.97 1009.02 1009.05 1009.05 1009.04 1009.04 1009.09 1009.20 1009.41 1009.70 1010.07 1010.50 1010.96 1011.43 1011.89 1012.34 1012.77 1013.18 1013.57 1013.94 1014.27 1014.57 1014.82 1015.03 1015.21 1015.38 1015.57 1015.79 1016.07 1016.41 1016.81 1017.25 1017.70 1018.12 1018.51
1011.75 1011.93 1011.92 1011.72 1011.38 1010.94 1010.47 1010.02 1009.65 1009.38 1009.22 1009.15 1009.16 1009.19 1009.24 1009.27 1009.27 1009.25 1009.25 1009.26 1009.33 1009.47 1009.67 1009.95 1010.27 1010.64 1011.02 1011.42 1011.83 1012.25 1012.68 1013.12 1013.57 1014.00 1014.41 1014.77 1015.07 1015.31 1015.50 1015.66 1015.81 1016.00 1016.25 1016.56 1016.93 1017.35 1017.78 1018.20 1018.59
1011.59 1011.67 1011.56 1011.29 1010.92 1010.50 1010.09 1009.74 1009.49 1009.34 1009.29 1009.30 1009.35 1009.40 1009.43 1009.43 1009.41 1009.39 1009.38 1009.41 1009.50 1009.65 1009.86 1010.12 1010.41 1010.71 1011.04 1011.37 1011.73 1012.13 1012.56 1013.03 1013.53 1014.04 1014.52 1014.94 1015.30 1015.58 1015.78 1015.93 1016.07 1016.23 1016.43 1016.70 1017.04 1017.42 1017.83 1018.25 1018.63
1011.44 1011.45 1011.27 1010.96 1010.58 1010.19 1009.84 1009.58 1009.42 1009.36 1009.38 1009.43 1009.50 1009.54 1009.55 1009.53 1009.49 1009.46 1009.46 1009.51 1009.61 1009.77 1009.98 1010.22 1010.48 1010.74 1011.01 1011.30 1011.63 1012.00 1012.43 1012.93 1013.46 1014.02 1014.55 1015.03 1015.44 1015.76 1015.99 1016.15 1016.29 1016.42 1016.60 1016.84 1017.14 1017.49 1017.88 1018.28 1018.65
1011.31 1011.27 1011.07 1010.76 1010.39 1010.04 1009.75 1009.55 1009.46 1009.45 1009.50 1009.58 1009.64 1009.67 1009.66 1009.62 1009.57 1009.53 1009.53 1009.58 1009.70 1009.86 1010.06 1010.28 1010.51 1010.74 1010.97 1011.23 1011.53 1011.88 1012.31 1012.80 1013.35 1013.92 1014.49 1015.00 1015.44 1015.80 1016.06 1016.26 1016.41 1016.56 1016.73 1016.95 1017.23 1017.57 1017.94 1018.32 1018.69
1011.18 1011.14 1010.95 1010.67 1010.35 1010.06 1009.82 1009.68 1009.62 1009.64 1009.70 1009.77 1009.82 1009.83 1009.80 1009.75 1009.68 1009.64 1009.63 1009.68 1009.78 1009.93 1010.11 1010.31 1010.52 1010.72 1010.93 1011.17 1011.45 1011.78 1012.18 1012.66 1013.19 1013.75 1014.30 1014.83 1015.29 1015.67 1015.98 1016.22 1016.42 1016.60 1016.80 1017.04 1017.32 1017.65 1018.00 1018.37 1018.72
1011.03 1011.02 1010.88 1010.67 1010.42 1010.20 1010.02 1009.92 1009.89 1009.91 1009.96 1010.01 1010.03 1010.03 1009.99 1009.92 1009.85 1009.80 1009.78 1009.80 1009.88 1009.99 1010.14 1010.32 1010.50 1010.69 1010.89 1011.12 1011.38 1011.69 1012.07 1012.50 1012.98 1013.49 1014.01 1014.51 1014.97 1015.37 1015.72 1016.03 1016.29 1016.55 1016.80 1017.08 1017.39 1017.72 1018.06 1018.41 1018.75
1010.84 1010.88 1010.82 1010.70 1010.55 1010.41 1010.30 1010.23 1010.20 1010.21 1010.23 1010.25 1010.25 1010.23 1010.18 1010.11 1010.03 1009.97 1009.92 1009.92 1009.95 1010.02 1010.12 1010.26 1010.42 1010.61 1010.81 1011.05 1011.31 1011.61 1011.95 1012.34 1012.75 1013.19 1013.64 1014.09 1014.53 1014.95 1015.34 1015.70 1016.05 1016.39 1016.72 1017.06 1017.40 1017.74 1018.08 1018.42 1018.72
1010.59 1010.70 1010.74 1010.73 1010.69 1010.63 1010.58 1010.53 1010.50 1010.48 1010.46 1010.44 1010.41 1010.36 1010.30 1010.23 1010.15 1010.07 1010.00 1009.95 1009.94 1009.95 1010.01 1010.11 1010.26 1010.45 1010.67 1010.93 1011.21 1011.51 1011.83 1012.16 1012.51 1012.87 1013.24 1013.63 1014.03 1014.45 1014.87 1015.29 1015.72 1016.14 1016.54 1016.94 1017.32 1017.68 1018.02 1018.33 1018.61
1010.29 1010.48 1010.63 1010.74 1010.81 1010.84 1010.83 1010.79 1010.72 1010.64 1010.56 1010.48 1010.40 1010.33 1010.26 1010.19 1010.11 1010.03 1009.94 1009.85 1009.79 1009.76 1009.77 1009.85 1009.99 1010.19 1010.45 1010.74 1011.05 1011.37 1011.68 1011.98 1012.27 1012.56 1012.86 1013.18 1013.54 1013.93 1014.37 1014.84 1015.32 1015.80 1016.27 1016.71 1017.12 1017.49 1017.82 1018.11 1018.36
1009.98 1010.26 1010.53 1010.75 1010.92 1011.01 1011.02 1010.95 1010.83 1010.67 1010.49 1010.33 1010.19 1010.08 1009.99 1009.92 1009.85 1009.78 1009.68 1009.58 1009.49 1009.43 1009.41 1009.47 1009.61 1009.84 1010.13 1010.48 1010.84 1011.19 1011.52 1011.80 1012.05 1012.29 1012.52 1012.78 1013.09 1013.46 1013.88 1014.36 1014.87 1015.39 1015.89 1016.36 1016.78 1017.15 1017.47 1017.74 1017.97
1009.71 1010.09 1010.46 1010.79 1011.03 1011.16 1011.16 1011.04 1010.82 1010.54 1010.25 1009.97 1009.75 1009.59 1009.48 1009.42 1009.37 1009.32 1009.25 1009.16 1009.07 1009.00 1008.98 1009.03 1009.18 1009.43 1009.77 1010.16 1010.57 1010.97 1011.32 1011.62 1011.86 1012.06 1012.25 1012.46 1012.72 1013.04 1013.44 1013.90 1014.39 1014.91 1015.40 1015.87 1016.28 1016.64 1016.95 1017.21 1017.43
1009.53 1009.99 1010.46 1010.87 1011.16 1011.30 1011.26 1011.06 1010.72 1010.30 1009.86 1009.45 1009.13 1008.91 1008.78 1008.73 1008.73 1008.73 1008.72 1008.68 1008.62 1008.57 1008.56 1008.62 1008.79 1009.06 1009.42 1009.85 1010.30 1010.74 1011.13 1011.45 1011.69 1011.88 1012.04 1012.21 1012.42 1012.70 1013.04 1013.45 1013.90 1014.37 1014.83 1015.26 1015.64 1015.98 1016.27 1016.53 1016.76
1009.47 1010.00 1010.54 1011.01 1011.33 1011.46 1011.36 1011.05 1010.58 1010.00 1009.40 1008.86 1008.43 1008.14 1008.00 1007.98 1008.04 1008.12 1008.20 1008.25 1008.26 1008.26 1008.29 1008.37 1008.54 1008.81 1009.18 1009.62 1010.09 1010.55 1010.96 1011.29 1011.55 1011.74 1011.89 1012.03 1012.20 1012.42 1012.69 1013.03 1013.40 1013.79 1014.18 1014.55 1014.89 1015.20 1015.48 1015.75 1016.00
1009.52 1010.10 1010.68 1011.18 1011.51 1011.61 1011.45 1011.04 1010.43 1009.70 1008.96 1008.28 1007.76 1007.42 1007.28 1007.30 1007.44 1007.64 1007.84 1008.00 1008.12 1008.20 1008.27 1008.37 1008.54 1008.79 1009.12 1009.53 1009.98 1010.42 1010.83 1011.17 1011.44 1011.63 1011.78 1011.90 1012.03 1012.19 1012.38 1012.63 1012.90 1013.19 1013.49 1013.79 1014.08 1014.35 1014.63 1014.90 1015.18
1009.63 1010.23 1010.83 1011.33 1011.66 1011.73 1011.51 1011.02 1010.30 1009.46 1008.60 1007.83 1007.24 1006.88 1006.75 1006.83 1007.07 1007.39 1007.73 1008.03 1008.27 1008.44 1008.56 1008.68 1008.82 1009.03 1009.30 1009.64 1010.02 1010.41 1010.78 1011.11 1011.37 1011.56 1011.70 1011.80 1011.89 1011.99 1012.11 1012.25 1012.42 1012.61 1012.81 1013.03 1013.26 1013.50 1013.76 1014.05 1014.35
1009.75 1010.33 1010.91 1011.40 1011.71 1011.76 1011.51 1010.97 1010.20 1009.30 1008.38 1007.56 1006.94 1006.58 1006.49 1006.64 1006.99 1007.44 1007.92 1008.35 1008.71 1008.97 1009.15 1009.28 1009.39 1009.52 1009.71 1009.94 1010.22 1010.53 1010.84 1011.11 1011.34 1011.52 1011.65 1011.73 1011.78 1011.82 1011.87 1011.92 1011.98 1012.07 1012.18 1012.31 1012.48 1012.69 1012.94 1013.23 1013.55
1009.84 1010.34 1010.87 1011.33 1011.62 1011.66 1011.41 1010.88 1010.12 1009.22 1008.30 1007.50 1006.90 1006.57 1006.53 1006.76 1007.20 1007.77 1008.37 1008.93 1009.40 1009.74 1009.96 1010.09 1010.17 1010.22 1010.30 1010.42 1010.58 1010.78 1010.99 1011.20 1011.38 1011.53 1011.63 1011.68 1011.70 1011.69 1011.66 1011.63 1011.61 1011.60 1011.62 1011.69 1011.81 1011.98 1012.21 1012.49 1012.80
1009.85 1010.25 1010.70 1011.10 1011.37 1011.42 1011.20 1010.72 1010.03 1009.20 1008.36 1007.62 1007.09 1006.82 1006.84 1007.14 1007.66 1008.31 1009.01 1009.66 1010.21 1010.62 1010.88 1011.01 1011.04 1011.03 1011.01 1011.01 1011.05 1011.13 1011.25 1011.37 1011.49 1011.59 1011.65 1011.68 1011.65 1011.60 1011.51 1011.41 1011.31 1011.22 1011.18 1011.18 1011.24 1011.38 1011.58 1011.83 1012.13
1009.82 1010.07 1010.41 1010.74 1010.98 1011.04 1010.89 1010.50 1009.93 1009.24 1008.53 1007.92 1007.49 1007.30 1007.39 1007.74 1008.30 1009.00 1009.74 1010.44 1011.03 1011.48 1011.76 1011.89 1011.91 1011.84 1011.75 1011.66 1011.59 1011.57 1011.58 1011.63 1011.68 1011.72 1011.73 1011.71 1011.65 1011.54 1011.40 1011.24 1011.08 1010.94 1010.84 1010.79 1010.81 1010.90 1011.06 1011.28 1011.52
1009.78 1009.87 1010.08 1010.32 1010.52 1010.60 1010.52 1010.26 1009.85 1009.33 1008.80 1008.35 1008.05 1007.96 1008.11 1008.48 1009.05 1009.74 1010.47 1011.17 1011.77 1012.22 1012.52 1012.66 1012.67 1012.58 1012.45 1012.30 1012.16 1012.06 1011.99 1011.95 1011.93 1011.91 1011.87 1011.79 1011.68 1011.53 1011.34 1011.14 1010.93 1010.75 1010.60 1010.51 1010.49 1010.53 1010.64 1010.81 1010.99
1009.80 1009.73 1009.80 1009.93 1010.08 1010.18 1010.17 1010.05 1009.81 1009.50 1009.18 1008.90 1008.75 1008.75 1008.95 1009.33 1009.87 1010.50 1011.17 1011.82 1012.38 1012.81 1013.11 1013.26 1013.28 1013.20 1013.07 1012.90 1012.73 1012.58 1012.45 1012.34 1012.25 1012.16 1012.05 1011.91 1011.75 1011.55 1011.32 1011.08 1010.84 1010.62 1010.44 1010.32 1010.25 1010.25 1010.31 1010.40 1010.52
1009.97 1009.73 1009.65 1009.68 1009.77 1009.87 1009.93 1009.94 1009.88 1009.78 1009.66 1009.58 1009.57 1009.67 1009.91 1010.27 1010.74 1011.28 1011.85 1012.40 1012.89 1013.28 1013.56 1013.72 1013.76 1013.72 1013.61 1013.46 1013.29 1013.12 1012.95 1012.78 1012.62 1012.45 1012.27 1012.07 1011.84 1011.59 1011.32 1011.05 1010.78 1010.54 1010.34 1010.18 1010.08 1010.03 1010.03 1010.05 1010.08
Thickness
5710 5712 5713 5707 5692 5678 5686 5702 5712 5719 5724 5732 5736 5737 5735 5733 5732 5735 5748 5755 5756 5755 5754 5753 5752 5751 5750 5749 5748 5747 5746 5746 5745 5744 5744 5743 5742 5742 5741 5741 5740 5739 5739 5738 5737 5736 5735 5735 5734
5704 5706 5701 5691 5676 5670 5684 5702 5709 5719 5727 5730 5732 5733 5733 5733 5739 5742 5746 5750 5752 5752 5751 5750 5749 5748 5746 5745 5744 5744 5743 5742 5741 5740 5740 5739 5739 5738 5737 5737 5736 5735 5735 5734 5733 5732 5731 5730 5730
5698 5698 5687 5676 5669 5674 5693 5707 5710 5719 5724 5727 5725 5728 5729 5731 5736 5740 5745 5747 5748 5747 5746 5746 5745 5743 5742 5741 5740 5740 5739 5738 5737 5736 5736 5735 5735 5734 5734 5733 5732 5732 5731 5730 5729 5728 5727 5726 5726
5688 5682 5675 5668 5672 5683 5696 5708 5710 5713 5719 5722 5721 5720 5726 5733 5736 5739 5742 5743 5742 5742 5742 5741 5740 5739 5738 5737 5737 5736 5735 5734 5733 5733 5732 5731 5731 5730 5730 5729 5728 5727 5727 5726 5725 5724 5723 5722 5721
5677 5669 5662 5660 5671 5685 5693 5701 5708 5710 5712 5716 5716 5714 5720 5728 5734 5736 5737 5737 5736 5736 5736 5736 5735 5735 5734 5733 5732 5731 5730 5730 5729 5728 5728 5727 5727 5726 5725 5725 5724 5723 5722 5721 5720 5720 5719 5717 5716
5661 5657 5650 5654 5668 5682 5690 5699 5704 5705 5706 5709 5710 5709 5714 5722 5726 5728 5730 5730 5730 5731 5731 5731 5730 5730 5729 5728 5728 5727 5726 5725 5724 5724 5723 5723 5722 5722 5721 5720 5719 5719 5718 5717 5716 5715 5714 5713 5712
5652 5648 5648 5656 5664 5676 5688 5695 5697 5698 5700 5703 5707 5703 5708 5715 5719 5722 5723 5723 5723 5724 5725 5725 5725 5724 5724 5723 5723 5722 5721 5720 5720 5719 5718 5718 5717 5717 5716 5715 5715 5714 5713 5712 5711 5710 5709 5708 5707
5649 5644 5645 5649 5658 5671 5684 5689 5694 5695 5697 5702 5704 5700 5702 5710 5713 5714 5715 5715 5716 5717 5718 5718 5719 5719 5718 5718 5717 5717 5716 5715 5714 5713 5713 5712 5712 5711 5711 5710 5710 5709 5708 5707 5706 5705 5704 5703 5702
5644 5634 5637 5647 5655 5668 5678 5681 5685 5691 5691 5694 5698 5702 5706 5707 5707 5706 5705 5706 5707 5709 5710 5712 5712 5713 5712 5712 5711 5711 5710 5709 5708 5707 5707 5706 5706 5706 5705 5705 5704 5704 5703 5702 5701 5700 5699 5698 5697
5632 5628 5640 5652 5658 5664 5670 5673 5676 5681 5682 5685 5689 5694 5698 5699 5700 5699 5699 5699 5700 5701 5703 5705 5706 5706 5706 5706 5705 5705 5704 5703 5702 5702 5701 5701 5700 5700 5699 5699 5698 5698 5697 5696 5695 5694 5693 5692 5691
5627 5629 5640 5648 5655 5659 5661 5664 5669 5672 5672 5679 5683 5686 5688 5691 5692 5693 5693 5694 5695 5696 5697 5698 5700 5700 5700 5700 5699 5698 5698 5697 5696 5696 5695 5695 5694 5693 5693 5692 5692 5691 5691 5690 5689 5688 5687 5686 5685
5620 5627 5635 5642 5648 5651 5654 5657 5659 5664 5671 5678 5681 5682 5683 5684 5686 5688 5688 5688 5689 5689 5691 5692 5694 5694 5694 5694 5694 5693 5692 5691 5690 5690 5690 5689 5688 5687 5687 5686 5685 5685 5684 5683 5682 5682 5681 5680 5679
5612 5620 5628 5634 5638 5642 5645 5647 5651 5656 5664 5669 5672 5673 5675 5677 5679 5680 5682 5682 5682 5683 5685 5686 5688 5688 5688 5688 5688 5687 5686 5686 5685 5684 5684 5684 5683 5681 5680 5680 5679 5678 5678 5677 5676 5675 5674 5673 5672
5607 5612 5618 5623 5629 5634 5636 5639 5643 5651 5655 5659 5662 5664 5666 5669 5671 5672 5673 5675 5676 5678 5679 5680 5681 5682 5682 5682 5682 5681 5680 5680 5679 5679 5678 5678 5677 5676 5675 5674 5673 5672 5672 5671 5670 5669 5668 5666 5665
5599 5600 5605 5612 5619 5624 5627 5628 5635 5644 5646 5648 5651 5654 5658 5661 5664 5666 5668 5670 5671 5672 5673 5674 5676 5676 5676 5676 5675 5675 5675 5674 5674 5673 5673 5672 5671 5670 5669 5668 5667 5666 5665 5664 5663 5662 5661 5659 5658
5586 5587 5589 5604 5609 5615 5614 5617 5631 5634 5636 5638 5640 5643 5648 5652 5656 5660 5662 5664 5665 5666 5667 5668 5670 5670 5670 5670 5669 5669 5668 5668 5668 5667 5667 5666 5665 5665 5664 5662 5661 5660 5659 5657 5656 5655 5653 5652 5650
5569 5570 5579 5592 5601 5604 5605 5611 5622 5625 5627 5629 5632 5635 5639 5643 5648 5652 5655 5657 5659 5660 5661 5661 5662 5663 5663 5663 5662 5662 5662 5661 5661 5661 5660 5660 5659 5659 5658 5656 5655 5653 5652 5650 5649 5647 5645 5644 5643
5560 5563 5572 5579 5590 5593 5595 5602 5611 5615 5617 5619 5622 5626 5631 5636 5643 5646 5648 5650 5652 5653 5654 5655 5655 5655 5656 5655 5654 5654 5654 5654 5654 5654 5653 5653 5653 5652 5651 5649 5648 5646 5644 5642 5641 5639 5637 5636 5634
5555 5557 5563 5571 5580 5583 5585 5591 5601 5605 5608 5611 5614 5619 5624 5630 5636 5638 5641 5643 5644 5645 5647 5648 5648 5648 5648 5648 5647 5646 5645 5646 5646 5646 5646 5646 5645 5645 5644 5642 5640 5638 5637 5635 5634 5631 5629 5627 5625
5545 5548 5553 5562 5570 5573 5574 5581 5592 5598 5603 5609 5612 5615 5619 5623 5627 5630 5633 5635 5637 5639 5640 5641 5642 5642 5643 5643 5642 5641 5639 5638 5638 5638 5638 5639 5638 5637 5636 5634 5633 5631 5629 5627 5625 5623 5620 5618 5616
5536 5539 5544 5551 5556 5560 5564 5572 5583 5593 5598 5603 5605 5610 5613 5619 5622 5624 5626 5627 5629 5631 5633 5636 5635 5635 5636 5636 5634 5632 5630 5629 5629 5629 5630 5630 5629 5629 5628 5626 5625 5623 5622 5620 5618 5616 5613 5609 5606
5528 5537 5541 5543 5540 5537 5549 5547 5571 5580 5587 5594 5596 5599 5603 5609 5614 5617 5620 5621 5623 5625 5626 5627 5628 5628 5628 5628 5627 5626 5625 5622 5622 5621 5621 5621 5621 5620 5619 5618 5617 5615 5613 5612 5610 5607 5605 5601 5598
5522 5530 5530 5531 5526 5523 5533 5534 5557 5567 5577 5587 5590 5592 5596 5600 5605 5610 5614 5616 5617 5617 5618 5619 5619 5619 5619 5620 5620 5619 5617 5616 5614 5613 5612 5612 5611 5611 5610 5610 5608 5607 5605 5603 5601 5599 5596 5593 5590
5513 5515 5513 5509 5510 5513 5524 5527 5544 5553 5569 5578 5582 5584 5587 5591 5596 5601 5605 5606 5607 5607 5608 5609 5610 5610 5611 5611 5611 5610 5608 5607 5605 5604 5603 5602 5602 5601 5601 5600 5599 5598 5596 5595 5593 5590 5587 5584 5582
5504 5499 5493 5493 5491 5504 5518 5522 5538 5556 5560 5566 5571 5574 5577 5580 5585 5589 5593 5595 5596 5597 5599 5600 5601 5601 5601 5601 5601 5601 5600 5599 5598 5597 5595 5593 5592 5592 5591 5591 5590 5589 5587 5586 5584 5581 5579 5576 5573
5492 5496 5490 5490 5493 5497 5506 5512 5533 5545 5550 5555 5559 5562 5565 5568 5572 5578 5581 5584 5586 5587 5588 5590 5591 5591 5591 5592 5592 5592 5591 5590 5590 5589 5587 5586 5584 5584 5583 5582 5580 5579 5578 5576 5574 5572 5570 5567 5565
5483 5484 5489 5479 5476 5485 5495 5506 5524 5537 5540 5544 5547 5549 5551 5554 5559 5564 5568 5572 5574 5576 5577 5579 5581 5581 5581 5582 5582 5581 5581 5581 5580 5579 5578 5577 5576 5575 5574 5572 5570 5569 5568 5566 5564 5562 5559 5557 5555
5479 5478 5474 5473 5477 5488 5497 5501 5514 5522 5526 5530 5534 5535 5538 5542 5546 5550 5555 5559 5561 5563 5565 5567 5569 5570 5570 5570 5571 5571 5571 5571 5570 5569 5568 5567 5566 5565 5563 5562 5560 5559 5557 5556 5553 5551 5549 5546 5544
5464 5467 5469 5466 5469 5479 5488 5499 5507 5509 5513 5516 5519 5522 5525 5529 5533 5538 5542 5546 5549 5550 5552 5554 5555 5557 5557 5558 5559 5560 5560 5560 5560 5559 5558 5556 5555 5554 5553 5551 5550 5548 5546 5545 5543 5540 5538 5535 5533
5456 5457 5457 5461 5456 5457 5468 5484 5498 5497 5500 5504 5506 5510 5512 5516 5519 5523 5528 5532 5534 5536 5539 5540 5542 5544 5545 5546 5547 5548 5548 5548 5548 5547 5546 5545 5544 5543 5541 5540 5538 5537 5536 5534 5532 5529 5527 5524 5522